sat.trackr.live / text

‹ back to catalog

STARLINK-11602 [DTC]

NORAD 63183 · 2025-048A

PAYLOAD ACTIVE UNKNOWN

§ Identity

Operator
Country
US
Launch date
2025-03-13
Launch site
AFETR
Launch vehicle
Mass (kg)
RCS (m²)

Purposes: comms

External: N2YO · Heavens-Above · Gunter

§ Orbital elements

Epoch: 2026-09-20T22:16:18.505344Z

Period
91.67 min
Inclination
42.9985°
Eccentricity
0.0000978
Mean motion
15.70882735 rev/d
Perigee alt
355.7 km
Apogee alt
357.0 km
Semi-major
6,734.5 km
B*
8.9798e-4
RAAN
223.3771°
Arg perigee
256.1865°
Mean anomaly
103.8894°
Rev number
8,884

§ Raw data

STARLINK-11602 [DTC]1 63183U 25048A   26263.92799196  .00116612  00000+0  89798-3 0  99912 63183  42.9985 223.3771 0000978 256.1865 103.8894 15.70882735 88849

JSON: /api/v1/satellites/63183 · /tle

For live sub-satellite position, see the globe view (requires WebGL).

§ Visibility from observer

Set your observer location to see the next 7 days of passes ≥ 10°. The values pass through the URL so the page stays shareable.

No JS? Fill the form by hand. The geolocation button needs JavaScript.